TimeCDT,TemperatureF,Dew PointF,Humidity,Sea Level PressureIn,VisibilityMPH,Wind Direction,Wind SpeedMPH,Gust SpeedMPH,PrecipitationIn,Events,Conditions,WindDirDegrees,DateUTC
12:53 AM,41.0,30.9,67,30.27,10.0,NNW,4.6,-,N/A,,Overcast,330,2013-05-05 05:53:00
1:53 AM,41.0,30.0,65,30.26,10.0,NW,4.6,-,N/A,,Mostly Cloudy,320,2013-05-05 06:53:00
2:53 AM,37.9,30.0,73,30.26,10.0,West,3.5,-,N/A,,Overcast,280,2013-05-05 07:53:00
3:53 AM,37.0,28.0,70,30.26,10.0,NW,6.9,-,N/A,,Clear,310,2013-05-05 08:53:00
4:53 AM,34.0,25.0,70,30.26,10.0,NW,6.9,-,N/A,,Clear,320,2013-05-05 09:53:00
5:53 AM,33.1,24.1,70,30.27,10.0,West,5.8,-,N/A,,Partly Cloudy,260,2013-05-05 10:53:00
6:53 AM,30.9,21.9,69,30.28,10.0,West,6.9,-,N/A,,Clear,270,2013-05-05 11:53:00
7:53 AM,36.0,24.1,62,30.28,10.0,West,6.9,-,N/A,,Clear,280,2013-05-05 12:53:00
8:53 AM,42.1,25.0,51,30.28,10.0,NW,9.2,-,N/A,,Clear,320,2013-05-05 13:53:00
9:53 AM,46.9,28.0,48,30.28,10.0,NNW,9.2,-,N/A,,Overcast,340,2013-05-05 14:53:00
10:53 AM,51.1,26.1,38,30.26,10.0,NNW,13.8,-,N/A,,Overcast,330,2013-05-05 15:53:00
11:53 AM,54.0,28.9,38,30.25,10.0,NNW,15.0,25.3,N/A,,Scattered Clouds,340,2013-05-05 16:53:00
1:53 PM,57.9,34.0,41,30.21,10.0,North,10.4,16.1,N/A,,Partly Cloudy,360,2013-05-05 18:53:00
2:53 PM,59.0,34.0,39,30.19,10.0,Variable,3.5,-,N/A,,Clear,0,2013-05-05 19:53:00
3:53 PM,60.1,33.1,36,30.18,10.0,Variable,5.8,-,N/A,,Partly Cloudy,0,2013-05-05 20:53:00
4:53 PM,61.0,33.1,35,30.16,10.0,Variable,6.9,-,N/A,,Clear,0,2013-05-05 21:53:00
5:53 PM,62.1,34.0,35,30.15,10.0,NNE,6.9,-,N/A,,Clear,30,2013-05-05 22:53:00
6:53 PM,61.0,33.1,35,30.14,10.0,NNE,10.4,-,N/A,,Clear,20,2013-05-05 23:53:00
7:53 PM,57.0,35.1,44,30.14,10.0,ENE,10.4,-,N/A,,Clear,70,2013-05-06 00:53:00
8:53 PM,50.0,34.0,54,30.15,10.0,East,8.1,-,N/A,,Clear,90,2013-05-06 01:53:00
9:53 PM,46.0,33.1,61,30.17,10.0,SE,8.1,-,N/A,,Clear,140,2013-05-06 02:53:00
10:53 PM,46.0,33.1,61,30.16,10.0,SE,6.9,-,N/A,,Clear,140,2013-05-06 03:53:00
11:53 PM,43.0,36.0,76,30.16,10.0,SE,8.1,-,N/A,,Clear,140,2013-05-06 04:53:00